Regional Weather Roundup
Issued by NWS

Home | Current Version | Previous Version | Text Only | Print | Product List | Glossary Off
Versions: 1 2 3 4 5 6 7 8 9 10 11 12 13 14 15 16 17 18 19 20 21 22 23 24 25 26 27 28 29 30 31 32 33 34 35 36 37 38 39 40 41 42 43 44 45 46 47 48 49 50

000
ASUS45 KTFX 021110
RWRMT
MONTANA REGIONAL WEATHER ROUNDUP
NATIONAL WEATHER SERVICE GREAT FALLS MT
500 AM MDT SUN AUG 02 2015

NOTE: "FAIR" INDICATES FEW OR NO CLOUDS BELOW 12000 FEET WITH NO
SIGNIFICANT WEATHER AND/OR OBSTRUCTIONS TO VISIBILITY.

MTZ001>007-043-021200-
WEST OF THE DIVIDE

CITY           SKY/WX    TMP DP  RH WIND       PRES   REMARKS
KALISPELL      MOSUNNY   48  36  63 CALM      29.96R
MISSOULA       CLEAR     54  39  57 CALM      30.02R
BUTTE          CLEAR     48  36  63 CALM      30.17R
MULLAN PASS    CLEAR     68  13  12 NW5       30.15F
DEER LODGE       N/A     52  37  58 CALM      30.14S
EUREKA           N/A     52  30  43 CALM      29.97S
HAMILTON         N/A     61  37  41 S8        30.03R
LIBBY            N/A     50  30  46 CALM      29.96S
PLAINS           N/A     51  37  58 CALM      29.97S
RONAN            N/A     52  39  61 CALM      30.01S
THOMPSON FALLS   N/A     50  30  46 CALM      30.01R
$$

MTZ008-052>055-021200-
SOUTHWEST MONTANA

CITY           SKY/WX    TMP DP  RH WIND       PRES   REMARKS
BOZEMAN        CLEAR     51  43  74 SE9       30.08S
DILLON         CLEAR     54  37  52 S10       30.12R
W YELLOWSTONE  PTCLDY    39  37  93 W5        30.24S
THREE FORKS      N/A     49  24  37 CALM      30.06S
TWIN BRIDGES     N/A     52  38  58 E2        30.09S
$$

MTZ009-010-012-014-046-048-049-054-021200-
EAST SLOPES AND CENTRAL MONTANA

CITY           SKY/WX    TMP DP  RH WIND       PRES   REMARKS
CUT BANK       CLEAR     53  49  86 N13       30.08R
GREAT FALLS    CLEAR     54  45  71 SW5       30.03R
MALMSTROM AFB  CLEAR     58  44  59 SW9       30.03R
HELENA         CLEAR     59  41  51 SW5       30.04R
CONRAD           N/A     56  53  89 W10       30.08R
$$

MTZ011-013-016-021-045-047-050-051-021200-
NORTH CENTRAL MONTANA

CITY           SKY/WX    TMP DP  RH WIND       PRES   REMARKS
HAVRE          CLEAR     59  54  83 E12       30.01R
LEWISTOWN      CLEAR     57  46  66 SE8       30.02R
CHINOOK          N/A     57  54  88 CALM      30.03R
FORT BENTON      N/A     63  54  72 NE5       30.00R
$$

MTZ017>020-022>027-061-062-021200-
NORTHEAST MONTANA

CITY           SKY/WX    TMP DP  RH WIND       PRES   REMARKS
GLASGOW        CLEAR     58  51  78 NW6       29.99R
JORDAN           N/A     58  51  78 NE7       29.98R
SIDNEY         CLEAR     55  50  82 CALM      29.95R
WOLF POINT     PTCLDY    55  51  86 CALM      29.97R
MALTA            N/A     59  50  72 CALM      29.98R
PLENTYWOOD       N/A     55  52  88 CALM      29.97R
POPLAR           N/A     57  52  82 CALM      29.97S
SCOBEY           N/A     51  46  83 CALM      29.98R
$$

MTZ028>42-056>058-021200-
SOUTHCENTRAL AND SOUTHEAST MONTANA

CITY           SKY/WX    TMP DP  RH WIND       PRES   REMARKS
BAKER          CLEAR     62  52  69 CALM      29.96R
BILLINGS       PTCLDY    64  36  35 W7        29.96S
LIVINGSTON     CLEAR     52  41  66 W3        30.06S
MILES CITY     CLEAR     62  53  72 NE8       29.95R
EKALAKA          N/A     63  44  49 E3        29.97R
FORSYTH          N/A     64  52  63 NE5       29.93S
LAUREL           N/A     61  34  36 CALM      29.96R
ROUNDUP          N/A     61  46  57 N8        29.91R
$$

REGIONAL REPORTS...DAKOTAS

CITY           SKY/WX    TMP DP  RH WIND       PRES   REMARKS
WILLISTON      CLEAR     56  50  80 CALM      29.94R
MINOT          CLEAR     59  54  83 W9        29.86R
DICKINSON      CLEAR     53  50  89 NW6       29.91R
CROSBY         FAIR      54  54 100 NW8       29.94R
BISMARCK       CLEAR     62  55  77 NW7       29.84R
GRAND FORKS    MOCLDY    62  60  93 NW8       29.69R
FARGO          CLEAR     66  63  90 N10       29.61S
BUFFALO SD       N/A     61  50  67 N9        29.90R
RAPID CITY     CLEAR     68  55  63 NW9       29.91R
$$

REGIONAL REPORTS...WYOMING/IDAHO/WASHINGTON

CITY           SKY/WX    TMP DP  RH WIND       PRES   REMARKS
GILLETTE         N/A     70  32  24 CALM      29.98S
SHERIDAN       PTCLDY    62  41  46 S5        29.96S
BUFFALO WY     PTCLDY    70  30  22 SW8       30.04S
CODY           CLEAR     64  34  32 SW8       30.07R
YELLOWSTONE LA   N/A     41  34  76 NW3       30.33F
IDAHO FALLS    PTCLDY    51  43  74 N3        30.06S
SALMON         PTCLDY    52  43  71 CALM      30.06S
BOISE          PTCLDY    74  36  25 S5        29.88S
SPOKANE        PTCLDY    68  23  18 S10       29.90S
$$

REGIONAL REPORTS...ALBERTA

CITY           SKY/WX    TMP DP  RH WIND       PRES   REMARKS
EDMONTON       CLEAR     50  48  93 E2        30.02S
CALGARY        PTCLDY    59  52  77 S8        30.09F
LETHBRIDGE     MOCLDY    59  52  77 NW3       30.09R
MEDICINE HAT   MOCLDY    61  54  77 N6        30.05R
WATERTON GATE    N/A     45  43  93 CALM        N/A
CARDSTON         N/A     54  48  82 W3          N/A
MILK RIVER       N/A     52  48  87 N6          N/A
ONEFOUR          N/A     59  48  67 NE12        N/A
$$

REGIONAL REPORTS...SASKATCHEWAN

CITY           SKY/WX    TMP DP  RH WIND       PRES   REMARKS
SWIFT CURRENT  CLOUDY    54  52  94 NW6       30.05R
REGINA         PTCLDY    52  52 100 NW7       29.96R
SASKATOON      PTCLDY    50  50 100 NW7       30.01R
CYPRESS HILLS    N/A     54  45  71 NE3         N/A
VAL MARIE        N/A     52  50  93 N5          N/A
ROCKGLEN         N/A     55  50  82 NW7         N/A
$$



USA.gov is the U.S. government's official web portal to all federal, state and local government web resources and services.